sat.trackr.live / text

‹ back to catalog

STARLINK-30562

NORAD 58033 · 2023-156F

PAYLOAD ACTIVE UNKNOWN

§ Identity

Operator
Country
US
Launch date
2023-10-09
Launch site
AFWTR
Launch vehicle
Mass (kg)
RCS (m²)

Purposes: comms

External: N2YO · Heavens-Above · Gunter

§ Orbital elements

Epoch: 2026-05-24T10:24:58.657536Z

Period
94.10 min
Inclination
53.1595°
Eccentricity
0.0001213
Mean motion
15.30212425 rev/d
Perigee alt
474.3 km
Apogee alt
476.0 km
Semi-major
6,853.3 km
B*
1.2784e-4
RAAN
176.0699°
Arg perigee
74.3227°
Mean anomaly
285.7907°
Rev number
14,663

§ Raw data

STARLINK-305621 58033U 23156F   26144.43401224  .00003430  00000+0  12784-3 0  99972 58033  53.1595 176.0699 0001213  74.3227 285.7907 15.30212425146632

JSON: /api/v1/satellites/58033 · /tle

For live sub-satellite position, see the globe view (requires WebGL).

§ Visibility from observer

Set your observer location to see the next 7 days of passes ≥ 10°. The values pass through the URL so the page stays shareable.

No JS? Fill the form by hand. The geolocation button needs JavaScript.